,,Stat6,,Stat2,,Stat8,,Stat9,,Stat10,,Wind1,,Wind1,
time,status,PA1M_AVG,status,PR1M_SUM,status,RH1M_AVG,status,SR1M_AVG,status,TA1M_AVG,status,W1dAve1m,status,W1sAve1m,
2004-11-05, 00:00:00,VALID,918.342,VALID,0,VALID,100,VALID,-0.0679233,VALID,19.6791,VALID,19,VALID,0.886083,
2004-11-05, 00:01:00,VALID,918.322,VALID,0,VALID,100,VALID,0.0339617,VALID,19.7228,VALID,18,VALID,0.931108,
2004-11-05, 00:02:00,VALID,918.318,VALID,0,VALID,100,VALID,0,VALID,19.7328,VALID,20,VALID,1.24497,
2004-11-05, 00:03:00,VALID,918.3,VALID,0,VALID,100,VALID,0,VALID,19.732,VALID,18,VALID,0.885156,
2004-11-05, 00:04:00,VALID,918.287,VALID,0,VALID,100,VALID,0,VALID,19.7487,VALID,22,VALID,0.615916,
2004-11-05, 00:05:00,VALID,918.283,VALID,0,VALID,100,VALID,0.0339617,VALID,19.7226,VALID,17,VALID,1.10305,
2004-11-05, 00:06:00,VALID,918.265,VALID,0,VALID,100,VALID,0.0679233,VALID,19.7325,VALID,21,VALID,0.846112,
2004-11-05, 00:07:00,VALID,918.266,VALID,0,VALID,100,VALID,0.0169808,VALID,19.7191,VALID,339,VALID,0.603561,
2004-11-05, 00:08:00,VALID,918.265,VALID,0,VALID,100,VALID,0.0169808,VALID,19.6908,VALID,350,VALID,0.749814,
2004-11-05, 00:09:00,VALID,918.258,VALID,0,VALID,100,VALID,0.0509425,VALID,19.6674,VALID,11,VALID,0.74535,
2004-11-05, 00:10:00,VALID,918.249,VALID,0,VALID,100,VALID,0.0509425,VALID,19.6809,VALID,10,VALID,0.51242,
2004-11-05, 00:11:00,VALID,918.253,VALID,0,VALID,100,VALID,0.0339617,VALID,19.6838,VALID,14,VALID,0.618676,
2004-11-05, 00:12:00,VALID,918.253,VALID,0,VALID,100,VALID,0.0339617,VALID,19.6774,VALID,13,VALID,0.39375,
2004-11-05, 00:13:00,VALID,918.239,VALID,0,VALID,100,VALID,0.0339617,VALID,19.6876,VALID,27,VALID,0.48971,
2004-11-05, 00:14:00,VALID,918.236,VALID,0,VALID,100,VALID,0.0679233,VALID,19.7064,VALID,24,VALID,0.579327,
2004-11-05, 00:15:00,VALID,918.217,VALID,0,VALID,100,VALID,0,VALID,19.7223,VALID,23,VALID,1.20977,
2004-11-05, 00:16:00,VALID,918.229,VALID,0,VALID,100,VALID,0.0679233,VALID,19.7196,VALID,5,VALID,0.78683,
2004-11-05, 00:17:00,VALID,918.232,VALID,0,VALID,100,VALID,0.0169808,VALID,19.7104,VALID,13,VALID,0.792259,
2004-11-05, 00:18:00,VALID,918.231,VALID,0,VALID,100,VALID,0.0169808,VALID,19.697,VALID,28,VALID,0.822976,
2004-11-05, 00:19:00,VALID,918.244,VALID,0,VALID,100,VALID,0,VALID,19.7064,VALID,16,VALID,0.448686,
2004-11-05, 00:20:00,VALID,918.252,VALID,0,VALID,100,VALID,0.0679233,VALID,19.7037,VALID,18,VALID,1.42605,
2004-11-05, 00:21:00,VALID,918.263,VALID,0,VALID,100,VALID,0,VALID,19.6841,VALID,10,VALID,1.33518,
2004-11-05, 00:22:00,VALID,918.281,VALID,0,VALID,100,VALID,0.0169808,VALID,19.6679,VALID,18,VALID,1.15682,
2004-11-05, 00:23:00,VALID,918.28,VALID,0,VALID,100,VALID,0.0339617,VALID,19.6811,VALID,6,VALID,1.11471,
2004-11-05, 00:24:00,VALID,918.28,VALID,0,VALID,100,VALID,0.0169808,VALID,19.6555,VALID,360,VALID,1.30729,
2004-11-05, 00:25:00,VALID,918.272,VALID,0,VALID,100,VALID,0.0169808,VALID,19.6165,VALID,2,VALID,1.63374,
2004-11-05, 00:26:00,VALID,918.265,VALID,0,VALID,100,VALID,0,VALID,19.6006,VALID,11,VALID,1.63142,
2004-11-05, 00:27:00,VALID,918.266,VALID,0,VALID,100,VALID,0.0339617,VALID,19.6036,VALID,351,VALID,1.50242,
2004-11-05, 00:28:00,VALID,918.256,VALID,0,VALID,100,VALID,0,VALID,19.5745,VALID,321,VALID,0.816406,
2004-11-05, 00:29:00,VALID,918.259,VALID,0,VALID,100,VALID,0,VALID,19.5455,VALID,1,VALID,0.710747,
2004-11-05, 00:30:00,VALID,918.251,VALID,0,VALID,100,VALID,0,VALID,19.5557,VALID,356,VALID,0.959449,
2004-11-05, 00:31:00,VALID,918.222,VALID,0,VALID,100,VALID,0.0339617,VALID,19.5651,VALID,19,VALID,1.10494,
2004-11-05, 00:32:00,VALID,918.218,VALID,0,VALID,100,VALID,0.0339617,VALID,19.5944,VALID,6,VALID,0.997869,
2004-11-05, 00:33:00,VALID,918.182,VALID,0,VALID,100,VALID,0,VALID,19.5969,VALID,17,VALID,1.19815,
2004-11-05, 00:34:00,VALID,918.155,VALID,0,VALID,100,VALID,0.0339617,VALID,19.5842,VALID,18,VALID,1.66606,
2004-11-05, 00:35:00,VALID,918.11,VALID,0,VALID,100,VALID,0,VALID,19.5875,VALID,14,VALID,1.50896,
2004-11-05, 00:36:00,VALID,918.084,VALID,0,VALID,100,VALID,0.0169808,VALID,19.5713,VALID,358,VALID,0.743075,
2004-11-05, 00:37:00,VALID,918.047,VALID,0,VALID,100,VALID,0.0339617,VALID,19.5748,VALID,347,VALID,0.682692,
2004-11-05, 00:38:00,VALID,918.014,VALID,0,VALID,100,VALID,0.0169808,VALID,19.5522,VALID,347,VALID,0.762074,
2004-11-05, 00:39:00,VALID,917.98,VALID,0,VALID,100,VALID,0.0169808,VALID,19.5457,VALID,15,VALID,1.74893,
2004-11-05, 00:40:00,VALID,917.962,VALID,0,VALID,100,VALID,0.0169808,VALID,19.5291,VALID,17,VALID,1.55078,
2004-11-05, 00:41:00,VALID,917.948,VALID,0,VALID,100,VALID,0,VALID,19.5358,VALID,19,VALID,0.943979,
2004-11-05, 00:42:00,VALID,917.939,VALID,0,VALID,100,VALID,0.0339617,VALID,19.5519,VALID,22,VALID,0.56141,
2004-11-05, 00:43:00,VALID,917.923,VALID,0,VALID,100,VALID,0,VALID,19.5519,VALID,25,VALID,0.105674,
2004-11-05, 00:44:00,VALID,917.907,VALID,0,VALID,100,VALID,0,VALID,19.5616,VALID,24,VALID,0.3879,
2004-11-05, 00:45:00,VALID,917.883,VALID,0,VALID,100,VALID,0,VALID,19.5614,VALID,18,VALID,0.706555,
2004-11-05, 00:46:00,VALID,917.864,VALID,0,VALID,100,VALID,0.0509425,VALID,19.5748,VALID,20,VALID,0.952951,
2004-11-05, 00:47:00,VALID,917.835,VALID,0,VALID,100,VALID,0,VALID,19.5614,VALID,23,VALID,1.11478,
2004-11-05, 00:48:00,VALID,917.813,VALID,0,VALID,100,VALID,0.0509425,VALID,19.5743,VALID,17,VALID,0.813058,
2004-11-05, 00:49:00,VALID,917.795,VALID,0,VALID,100,VALID,0,VALID,19.5683,VALID,31,VALID,0.45367,
2004-11-05, 00:50:00,VALID,917.765,VALID,0,VALID,100,VALID,0,VALID,19.5745,VALID,30,VALID,0.641715,
2004-11-05, 00:51:00,VALID,917.718,VALID,0,VALID,100,VALID,0.0169808,VALID,19.5835,VALID,17,VALID,0.657703,
2004-11-05, 00:52:00,VALID,917.683,VALID,0,VALID,100,VALID,0.0509425,VALID,19.574,VALID,15,VALID,0.292783,
2004-11-05, 00:53:00,VALID,917.654,VALID,0,VALID,100,VALID,0.0169808,VALID,19.5614,VALID,11,VALID,0.215116,
2004-11-05, 00:54:00,VALID,917.624,VALID,0,VALID,100,VALID,0.0169808,VALID,19.5616,VALID,11,VALID,0.0154345,
2004-11-05, 00:55:00,VALID,917.617,VALID,0,VALID,100,VALID,0.0169808,VALID,19.5681,VALID,19,VALID,0.632086,
2004-11-05, 00:56:00,VALID,917.627,VALID,0,VALID,100,VALID,0,VALID,19.5557,VALID,18,VALID,0.738791,
2004-11-05, 00:57:00,VALID,917.622,VALID,0,VALID,100,VALID,0,VALID,19.5581,VALID,12,VALID,0.947599,
2004-11-05, 00:58:00,VALID,917.61,VALID,0,VALID,100,VALID,0.0169808,VALID,19.5425,VALID,14,VALID,0.910429,
2004-11-05, 00:59:00,VALID,917.598,VALID,0,VALID,100,VALID,0,VALID,19.5457,VALID,26,VALID,1.40216,
2004-11-05, 01:00:00,VALID,917.568,VALID,0,VALID,100,VALID,0,VALID,19.5398,VALID,342,VALID,0.936166,
2004-11-05, 01:01:00,VALID,917.526,VALID,0,VALID,100,VALID,-0.0679233,VALID,19.4988,VALID,3,VALID,0.865972,
2004-11-05, 01:02:00,VALID,917.5,VALID,0,VALID,100,VALID,-0.0339617,VALID,19.5087,VALID,20,VALID,0.621652,
2004-11-05, 01:03:00,VALID,917.453,VALID,0,VALID,100,VALID,-0.0679233,VALID,19.5186,VALID,22,VALID,0.547602,
2004-11-05, 01:04:00,VALID,917.446,VALID,0,VALID,100,VALID,-0.0679233,VALID,19.5052,VALID,26,VALID,0.766715,
2004-11-05, 01:05:00,VALID,917.451,VALID,0,VALID,100,VALID,0,VALID,19.5214,VALID,15,VALID,0.428445,
2004-11-05, 01:06:00,VALID,917.476,VALID,0,VALID,100,VALID,-0.0679233,VALID,19.5149,VALID,357,VALID,0.816134,
2004-11-05, 01:07:00,VALID,917.493,VALID,0,VALID,100,VALID,-0.0849042,VALID,19.4826,VALID,15,VALID,1.5067,
2004-11-05, 01:08:00,VALID,917.515,VALID,0,VALID,100,VALID,-0.0339617,VALID,19.4568,VALID,7,VALID,1.2642,
2004-11-05, 01:09:00,VALID,917.509,VALID,0,VALID,100,VALID,-0.0339617,VALID,19.4543,VALID,45,VALID,0.752131,
2004-11-05, 01:10:00,VALID,917.507,VALID,0,VALID,100,VALID,-0.0509425,VALID,19.4245,VALID,321,VALID,0.952553,
2004-11-05, 01:11:00,VALID,917.476,VALID,0,VALID,100,VALID,-0.0849042,VALID,19.4051,VALID,260,VALID,0.326953,
2004-11-05, 01:12:00,VALID,917.448,VALID,0,VALID,100,VALID,-0.0679233,VALID,19.425,VALID,356,VALID,0.539608,
2004-11-05, 01:13:00,VALID,917.405,VALID,0,VALID,100,VALID,-0.0339617,VALID,19.4543,VALID,360,VALID,0.174055,
2004-11-05, 01:14:00,VALID,917.361,VALID,0,VALID,100,VALID,-0.0169808,VALID,19.4277,VALID,356,VALID,0.777344,
2004-11-05, 01:15:00,VALID,917.309,VALID,0,VALID,100,VALID,-0.0169808,VALID,19.4212,VALID,10,VALID,1.01763,
2004-11-05, 01:16:00,VALID,917.273,VALID,0,VALID,100,VALID,0.0169808,VALID,19.4491,VALID,28,VALID,0.578887,
2004-11-05, 01:17:00,VALID,917.234,VALID,0,VALID,100,VALID,0.0169808,VALID,19.4131,VALID,22,VALID,0.804865,
2004-11-05, 01:18:00,VALID,917.196,VALID,0,VALID,100,VALID,0.0679233,VALID,19.4031,VALID,40,VALID,0.587798,
2004-11-05, 01:19:00,VALID,917.187,VALID,0,VALID,100,VALID,0.0509425,VALID,19.4131,VALID,43,VALID,0.377725,
2004-11-05, 01:20:00,VALID,917.172,VALID,0,VALID,100,VALID,0.0849042,VALID,19.4265,VALID,27,VALID,1.01804,
2004-11-05, 01:21:00,VALID,917.152,VALID,0,VALID,100,VALID,0.0849042,VALID,19.4555,VALID,21,VALID,0.752362,
2004-11-05, 01:22:00,VALID,917.132,VALID,0,VALID,100,VALID,0.0509425,VALID,19.4647,VALID,27,VALID,0.788699,
2004-11-05, 01:23:00,VALID,917.124,VALID,0,VALID,100,VALID,0,VALID,19.4551,VALID,16,VALID,0.984375,
2004-11-05, 01:24:00,VALID,917.1,VALID,0,VALID,100,VALID,0.0509425,VALID,19.4685,VALID,2,VALID,0.590523,
2004-11-05, 01:25:00,VALID,917.094,VALID,0,VALID,100,VALID,0.0509425,VALID,19.4883,VALID,13,VALID,0.504001,
2004-11-05, 01:26:00,VALID,917.087,VALID,0,VALID,100,VALID,0.0679233,VALID,19.4655,VALID,20,VALID,0.519444,
2004-11-05, 01:27:00,VALID,917.077,VALID,0,VALID,100,VALID,0.0679233,VALID,19.4555,VALID,21,VALID,1.11293,
2004-11-05, 01:28:00,VALID,917.055,VALID,0,VALID,100,VALID,0.0679233,VALID,19.4357,VALID,16,VALID,1.1625,
2004-11-05, 01:29:00,VALID,917.061,VALID,0,VALID,100,VALID,0.0509425,VALID,19.4555,VALID,23,VALID,0.735647,
2004-11-05, 01:30:00,VALID,917.053,VALID,0,VALID,100,VALID,0.0339617,VALID,19.459,VALID,24,VALID,0.730378,
2004-11-05, 01:31:00,VALID,917.039,VALID,0,VALID,100,VALID,-0.0509425,VALID,19.4794,VALID,24,VALID,0.666667,
2004-11-05, 01:32:00,VALID,917.054,VALID,0,VALID,100,VALID,-0.0509425,VALID,19.4923,VALID,11,VALID,0.521434,
2004-11-05, 01:33:00,VALID,917.05,VALID,0,VALID,100,VALID,-0.0679233,VALID,19.4985,VALID,12,VALID,0.397485,
2004-11-05, 01:34:00,VALID,917.029,VALID,0,VALID,100,VALID,-0.0509425,VALID,19.4789,VALID,22,VALID,1.05659,
2004-11-05, 01:35:00,VALID,917.005,VALID,0,VALID,100,VALID,-0.118866,VALID,19.4794,VALID,22,VALID,1.00335,
2004-11-05, 01:36:00,VALID,916.988,VALID,0,VALID,100,VALID,-0.0849042,VALID,19.4635,VALID,13,VALID,1.25521,
2004-11-05, 01:37:00,VALID,916.974,VALID,0,VALID,100,VALID,-0.101885,VALID,19.4473,VALID,5,VALID,0.827381,
2004-11-05, 01:38:00,VALID,916.949,VALID,0,VALID,100,VALID,-0.0169808,VALID,19.46,VALID,23,VALID,0.383956,
2004-11-05, 01:39:00,VALID,916.932,VALID,0,VALID,100,VALID,-0.0339617,VALID,19.4371,VALID,18,VALID,1.14348,
2004-11-05, 01:40:00,VALID,916.911,VALID,0,VALID,100,VALID,-0.0339617,VALID,19.4404,VALID,26,VALID,2.11997,
2004-11-05, 01:41:00,VALID,916.917,VALID,0,VALID,100,VALID,-0.0339617,VALID,19.4573,VALID,21,VALID,2.01916,
2004-11-05, 01:42:00,VALID,916.927,VALID,0,VALID,100,VALID,-0.0339617,VALID,19.4478,VALID,26,VALID,1.04961,
2004-11-05, 01:43:00,VALID,916.942,VALID,0,VALID,100,VALID,0,VALID,19.4568,VALID,15,VALID,0.32867,
2004-11-05, 01:44:00,VALID,916.927,VALID,0,VALID,100,VALID,0,VALID,19.4533,VALID,12,VALID,0.723292,
2004-11-05, 01:45:00,VALID,916.92,VALID,0,VALID,100,VALID,-0.0169808,VALID,19.4337,VALID,25,VALID,0.722656,
2004-11-05, 01:46:00,VALID,916.92,VALID,0,VALID,100,VALID,-0.0339617,VALID,19.4533,VALID,28,VALID,0.615734,
2004-11-05, 01:47:00,VALID,916.894,VALID,0,VALID,100,VALID,-0.0679233,VALID,19.4531,VALID,23,VALID,1.32457,
2004-11-05, 01:48:00,VALID,916.886,VALID,0,VALID,100,VALID,-0.101885,VALID,19.4468,VALID,25,VALID,1.50409,
2004-11-05, 01:49:00,VALID,916.882,VALID,0,VALID,100,VALID,-0.0509425,VALID,19.457,VALID,17,VALID,1.52734,
2004-11-05, 01:50:00,VALID,916.899,VALID,0,VALID,100,VALID,-0.101885,VALID,19.4404,VALID,19,VALID,1.60411,
2004-11-05, 01:51:00,VALID,916.914,VALID,0,VALID,100,VALID,-0.0679233,VALID,19.4342,VALID,22,VALID,1.22275,
2004-11-05, 01:52:00,VALID,916.912,VALID,0,VALID,100,VALID,-0.101885,VALID,19.4309,VALID,16,VALID,1.52461,
2004-11-05, 01:53:00,VALID,916.924,VALID,0,VALID,100,VALID,-0.101885,VALID,19.4083,VALID,17,VALID,1.15396,
2004-11-05, 01:54:00,VALID,916.91,VALID,0,VALID,100,VALID,-0.0679233,VALID,19.4056,VALID,18,VALID,1.37464,
2004-11-05, 01:55:00,VALID,916.926,VALID,0,VALID,100,VALID,-0.0849042,VALID,19.4051,VALID,11,VALID,1.16606,
2004-11-05, 01:56:00,VALID,916.914,VALID,0,VALID,100,VALID,-0.0509425,VALID,19.4118,VALID,18,VALID,0.861719,
2004-11-05, 01:57:00,VALID,916.925,VALID,0,VALID,100,VALID,-0.0509425,VALID,19.4083,VALID,19,VALID,1.78869,
2004-11-05, 01:58:00,VALID,916.922,VALID,0,VALID,100,VALID,-0.0509425,VALID,19.3532,VALID,14,VALID,2.08365,
2004-11-05, 01:59:00,VALID,916.934,VALID,0,VALID,100,VALID,-0.0849042,VALID,19.347,VALID,18,VALID,1.85196,
2004-11-05, 02:00:00,VALID,916.964,VALID,0,VALID,100,VALID,-0.0339617,VALID,19.3462,VALID,22,VALID,1.35286,
2004-11-05, 02:01:00,VALID,916.956,VALID,0,VALID,100,VALID,0.0169808,VALID,19.3291,VALID,13,VALID,1.31771,
2004-11-05, 02:02:00,VALID,916.959,VALID,0,VALID,100,VALID,0.0849042,VALID,19.3326,VALID,22,VALID,1.64702,
2004-11-05, 02:03:00,VALID,916.957,VALID,0,VALID,100,VALID,0.0509425,VALID,19.3189,VALID,12,VALID,1.65234,
2004-11-05, 02:04:00,VALID,916.966,VALID,0,VALID,100,VALID,0.0509425,VALID,19.3229,VALID,15,VALID,1.72582,
2004-11-05, 02:05:00,VALID,916.968,VALID,0,VALID,100,VALID,0.0509425,VALID,19.3132,VALID,14,VALID,1.36242,
2004-11-05, 02:06:00,VALID,916.957,VALID,0,VALID,100,VALID,0.0509425,VALID,19.31,VALID,13,VALID,1.10138,
2004-11-05, 02:07:00,VALID,916.942,VALID,0,VALID,100,VALID,0.0339617,VALID,19.313,VALID,6,VALID,2.05233,
2004-11-05, 02:08:00,VALID,916.932,VALID,0,VALID,100,VALID,0.0339617,VALID,19.3028,VALID,22,VALID,0.839571,
2004-11-05, 02:09:00,VALID,916.932,VALID,0,VALID,100,VALID,0.0169808,VALID,19.2839,VALID,316,VALID,1.15569,
2004-11-05, 02:10:00,VALID,916.925,VALID,0,VALID,100,VALID,0.0679233,VALID,19.3001,VALID,1,VALID,1.94494,
2004-11-05, 02:11:00,VALID,916.932,VALID,0,VALID,100,VALID,0,VALID,19.2968,VALID,37,VALID,1.11923,
2004-11-05, 02:12:00,VALID,916.927,VALID,0,VALID,100,VALID,0.0339617,VALID,19.2874,VALID,341,VALID,1.26198,
2004-11-05, 02:13:00,VALID,916.912,VALID,0,VALID,100,VALID,0.0169808,VALID,19.2976,VALID,21,VALID,1.82631,
2004-11-05, 02:14:00,VALID,916.931,VALID,0,VALID,100,VALID,0.0679233,VALID,19.3003,VALID,351,VALID,1.45729,
2004-11-05, 02:15:00,VALID,916.937,VALID,0,VALID,100,VALID,0.0679233,VALID,19.2938,VALID,16,VALID,2.0638,
2004-11-05, 02:16:00,VALID,916.911,VALID,0,VALID,100,VALID,0.0849042,VALID,19.3164,VALID,12,VALID,1.1163,
2004-11-05, 02:17:00,VALID,916.9,VALID,0,VALID,100,VALID,0.0339617,VALID,19.3164,VALID,16,VALID,1.18405,
2004-11-05, 02:18:00,VALID,916.903,VALID,0,VALID,100,VALID,0.0169808,VALID,19.3135,VALID,360,VALID,1.61646,
2004-11-05, 02:19:00,VALID,916.878,VALID,0,VALID,100,VALID,0.0679233,VALID,19.3068,VALID,8,VALID,1.98256,
2004-11-05, 02:20:00,VALID,916.858,VALID,0,VALID,100,VALID,0.0849042,VALID,19.2705,VALID,7,VALID,1.58031,
2004-11-05, 02:21:00,VALID,916.841,VALID,0,VALID,100,VALID,0.0679233,VALID,19.2777,VALID,13,VALID,1.48147,
2004-11-05, 02:22:00,VALID,916.841,VALID,0,VALID,100,VALID,0.0509425,VALID,19.3038,VALID,22,VALID,1.53579,
2004-11-05, 02:23:00,VALID,916.809,VALID,0,VALID,100,VALID,0.0509425,VALID,19.2869,VALID,22,VALID,1.51905,
2004-11-05, 02:24:00,VALID,916.787,VALID,0,VALID,100,VALID,0.0169808,VALID,19.3035,VALID,21,VALID,0.982701,
2004-11-05, 02:25:00,VALID,916.781,VALID,0,VALID,100,VALID,0.0679233,VALID,19.2971,VALID,18,VALID,1.41257,
2004-11-05, 02:26:00,VALID,916.774,VALID,0,VALID,100,VALID,0.0849042,VALID,19.3003,VALID,347,VALID,0.911204,
2004-11-05, 02:27:00,VALID,916.755,VALID,0,VALID,100,VALID,0.0339617,VALID,19.2973,VALID,13,VALID,1.38746,
2004-11-05, 02:28:00,VALID,916.716,VALID,0,VALID,100,VALID,0.0169808,VALID,19.2742,VALID,21,VALID,2.2472,
2004-11-05, 02:29:00,VALID,916.699,VALID,0,VALID,100,VALID,0.0169808,VALID,19.2742,VALID,23,VALID,2.44036,
2004-11-05, 02:30:00,VALID,916.675,VALID,0.2,VALID,100,VALID,0.0679233,VALID,19.2876,VALID,22,VALID,1.88157,
2004-11-05, 02:31:00,VALID,916.627,VALID,0,VALID,100,VALID,0.0339617,VALID,19.2779,VALID,10,VALID,1.42587,
2004-11-05, 02:32:00,VALID,916.595,VALID,0.2,VALID,100,VALID,0.0679233,VALID,19.2583,VALID,9,VALID,2.07866,
2004-11-05, 02:33:00,VALID,916.559,VALID,0,VALID,100,VALID,0.0509425,VALID,19.2583,VALID,20,VALID,1.76202,
2004-11-05, 02:34:00,VALID,916.526,VALID,0,VALID,100,VALID,0.0849042,VALID,19.2482,VALID,22,VALID,1.34133,
2004-11-05, 02:35:00,VALID,916.479,VALID,0.2,VALID,100,VALID,0.0509425,VALID,19.2583,VALID,20,VALID,1.18695,
2004-11-05, 02:36:00,VALID,916.459,VALID,0,VALID,100,VALID,0.0509425,VALID,19.2521,VALID,17,VALID,2.13026,
2004-11-05, 02:37:00,VALID,916.466,VALID,0,VALID,100,VALID,0.0509425,VALID,19.239,VALID,18,VALID,2.03646,
2004-11-05, 02:38:00,VALID,916.47,VALID,0,VALID,100,VALID,0.0169808,VALID,19.236,VALID,11,VALID,2.32849,
2004-11-05, 02:39:00,VALID,916.539,VALID,0,VALID,100,VALID,0.0849042,VALID,19.239,VALID,34,VALID,1.3125,
2004-11-05, 02:40:00,VALID,916.578,VALID,0,VALID,100,VALID,0.0849042,VALID,19.2459,VALID,16,VALID,1.38009,
2004-11-05, 02:41:00,VALID,916.617,VALID,0,VALID,100,VALID,0.0169808,VALID,19.2196,VALID,18,VALID,2.15412,
2004-11-05, 02:42:00,VALID,916.65,VALID,0,VALID,100,VALID,0.0679233,VALID,19.2327,VALID,3,VALID,1.96697,
2004-11-05, 02:43:00,VALID,916.678,VALID,0,VALID,100,VALID,0.0679233,VALID,19.226,VALID,10,VALID,2.02666,
2004-11-05, 02:44:00,VALID,916.697,VALID,0,VALID,100,VALID,0.0679233,VALID,19.236,VALID,17,VALID,0.961846,
2004-11-05, 02:45:00,VALID,916.687,VALID,0,VALID,100,VALID,0.0679233,VALID,19.2325,VALID,31,VALID,1.21057,
2004-11-05, 02:46:00,VALID,916.694,VALID,0,VALID,100,VALID,0.0339617,VALID,19.2327,VALID,23,VALID,1.2619,
2004-11-05, 02:47:00,VALID,916.704,VALID,0,VALID,100,VALID,0.0169808,VALID,19.2459,VALID,22,VALID,0.889266,
2004-11-05, 02:48:00,VALID,916.713,VALID,0,VALID,100,VALID,0,VALID,19.2457,VALID,3,VALID,1.71577,
2004-11-05, 02:49:00,VALID,916.693,VALID,0,VALID,100,VALID,0,VALID,19.2263,VALID,53,VALID,1.26799,
2004-11-05, 02:50:00,VALID,916.709,VALID,0,VALID,100,VALID,0.0169808,VALID,19.2198,VALID,24,VALID,1.34338,
2004-11-05, 02:51:00,VALID,916.712,VALID,0,VALID,100,VALID,0,VALID,19.2297,VALID,4,VALID,1.2689,
2004-11-05, 02:52:00,VALID,916.7,VALID,0,VALID,100,VALID,0.0169808,VALID,19.2201,VALID,347,VALID,1.08687,
2004-11-05, 02:53:00,VALID,916.69,VALID,0,VALID,100,VALID,0.0169808,VALID,19.2136,VALID,281,VALID,0.715972,
2004-11-05, 02:54:00,VALID,916.685,VALID,0,VALID,100,VALID,0.0169808,VALID,19.2166,VALID,13,VALID,1.101,
2004-11-05, 02:55:00,VALID,916.665,VALID,0,VALID,100,VALID,0,VALID,19.2196,VALID,351,VALID,1.57736,
2004-11-05, 02:56:00,VALID,916.677,VALID,0,VALID,100,VALID,0.0169808,VALID,19.2136,VALID,2,VALID,1.45126,
2004-11-05, 02:57:00,VALID,916.691,VALID,0,VALID,100,VALID,0,VALID,19.2166,VALID,359,VALID,0.872113,
2004-11-05, 02:58:00,VALID,916.696,VALID,0,VALID,100,VALID,0.0509425,VALID,19.2268,VALID,343,VALID,0.469113,
2004-11-05, 02:59:00,VALID,916.711,VALID,0.2,VALID,100,VALID,0.0169808,VALID,19.2134,VALID,339,VALID,0.0790128,
2004-11-05, 03:00:00,VALID,916.707,VALID,0,VALID,100,VALID,0.0169808,VALID,19.2208,VALID,333,VALID,0.238991,
2004-11-05, 03:01:00,VALID,916.693,VALID,0,VALID,100,VALID,-0.0679233,VALID,19.2148,VALID,340,VALID,0.153392,
2004-11-05, 03:02:00,VALID,916.687,VALID,0,VALID,100,VALID,-0.0509425,VALID,19.2377,VALID,15,VALID,0.887398,
2004-11-05, 03:03:00,VALID,916.672,VALID,0,VALID,100,VALID,-0.0849042,VALID,19.264,VALID,21,VALID,0.960756,
2004-11-05, 03:04:00,VALID,916.659,VALID,0,VALID,100,VALID,-0.0679233,VALID,19.2759,VALID,19,VALID,0.0703125,
2004-11-05, 03:05:00,VALID,916.658,VALID,0,VALID,100,VALID,-0.0849042,VALID,19.2829,VALID,19,VALID,0.000390625,
2004-11-05, 03:06:00,VALID,916.648,VALID,0,VALID,100,VALID,-0.0849042,VALID,19.2891,VALID,21,VALID,0.724466,
2004-11-05, 03:07:00,VALID,916.662,VALID,0,VALID,100,VALID,-0.101885,VALID,19.3085,VALID,15,VALID,1.05945,
2004-11-05, 03:08:00,VALID,916.673,VALID,0,VALID,100,VALID,-0.0849042,VALID,19.2826,VALID,11,VALID,0.952553,
2004-11-05, 03:09:00,VALID,916.683,VALID,0,VALID,100,VALID,-0.0679233,VALID,19.2861,VALID,23,VALID,1.01649,
2004-11-05, 03:10:00,VALID,916.682,VALID,0,VALID,100,VALID,-0.0679233,VALID,19.2729,VALID,350,VALID,0.992932,
2004-11-05, 03:11:00,VALID,916.69,VALID,0,VALID,100,VALID,-0.101885,VALID,19.2342,VALID,6,VALID,1.00205,
2004-11-05, 03:12:00,VALID,916.682,VALID,0,VALID,100,VALID,-0.0679233,VALID,19.2339,VALID,9,VALID,0.656622,
2004-11-05, 03:13:00,VALID,916.682,VALID,0,VALID,100,VALID,-0.0339617,VALID,19.2573,VALID,10,VALID,0.696484,
2004-11-05, 03:14:00,VALID,916.664,VALID,0,VALID,100,VALID,-0.0339617,VALID,19.2598,VALID,18,VALID,1.36328,
2004-11-05, 03:15:00,VALID,916.667,VALID,0,VALID,100,VALID,-0.0509425,VALID,19.2725,VALID,1,VALID,0.95846,
2004-11-05, 03:16:00,VALID,916.653,VALID,0,VALID,100,VALID,-0.0679233,VALID,19.2566,VALID,3,VALID,1.03757,
2004-11-05, 03:17:00,VALID,916.642,VALID,0,VALID,100,VALID,-0.0679233,VALID,19.2444,VALID,337,VALID,0.949673,
2004-11-05, 03:18:00,VALID,916.636,VALID,0,VALID,100,VALID,-0.0679233,VALID,19.2441,VALID,18,VALID,1.81836,
2004-11-05, 03:19:00,VALID,916.616,VALID,0,VALID,100,VALID,-0.101885,VALID,19.2508,VALID,21,VALID,1.3952,
2004-11-05, 03:20:00,VALID,916.608,VALID,0,VALID,100,VALID,-0.101885,VALID,19.257,VALID,17,VALID,1.22809,
2004-11-05, 03:21:00,VALID,916.593,VALID,0,VALID,100,VALID,-0.0849042,VALID,19.2344,VALID,346,VALID,1.3609,
2004-11-05, 03:22:00,VALID,916.567,VALID,0,VALID,100,VALID,-0.0679233,VALID,19.2051,VALID,339,VALID,1.11755,
2004-11-05, 03:23:00,VALID,916.537,VALID,0,VALID,100,VALID,-0.101885,VALID,19.2021,VALID,347,VALID,1.34263,
2004-11-05, 03:24:00,VALID,916.54,VALID,0,VALID,100,VALID,-0.0679233,VALID,19.2155,VALID,356,VALID,0.847266,
2004-11-05, 03:25:00,VALID,916.531,VALID,0,VALID,100,VALID,-0.0679233,VALID,19.2019,VALID,298,VALID,0.652058,
2004-11-05, 03:26:00,VALID,916.52,VALID,0,VALID,100,VALID,-0.101885,VALID,19.1954,VALID,360,VALID,1.25879,
2004-11-05, 03:27:00,VALID,916.497,VALID,0,VALID,100,VALID,-0.0849042,VALID,19.2021,VALID,4,VALID,1.52326,
2004-11-05, 03:28:00,VALID,916.495,VALID,0.2,VALID,100,VALID,-0.118866,VALID,19.1828,VALID,9,VALID,1.44494,
2004-11-05, 03:29:00,VALID,916.486,VALID,0.2,VALID,100,VALID,-0.0679233,VALID,19.2079,VALID,12,VALID,0.855196,
2004-11-05, 03:30:00,VALID,916.495,VALID,0,VALID,100,VALID,-0.0509425,VALID,19.2148,VALID,337,VALID,1.34859,
2004-11-05, 03:31:00,VALID,916.469,VALID,0.2,VALID,100,VALID,0.0169808,VALID,19.1555,VALID,350,VALID,1.41733,
2004-11-05, 03:32:00,VALID,916.464,VALID,0,VALID,100,VALID,0.0169808,VALID,19.1652,VALID,3,VALID,1.58891,
2004-11-05, 03:33:00,VALID,916.454,VALID,0,VALID,100,VALID,0.0339617,VALID,19.1719,VALID,5,VALID,1.67987,
2004-11-05, 03:34:00,VALID,916.457,VALID,0,VALID,100,VALID,0,VALID,19.1456,VALID,344,VALID,1.70903,
2004-11-05, 03:35:00,VALID,916.417,VALID,0.2,VALID,100,VALID,0.0169808,VALID,19.1331,VALID,359,VALID,1.88698,
2004-11-05, 03:36:00,VALID,916.417,VALID,0,VALID,100,VALID,0,VALID,19.1135,VALID,1,VALID,1.65734,
2004-11-05, 03:37:00,VALID,916.409,VALID,0,VALID,100,VALID,0,VALID,19.1167,VALID,359,VALID,1.49554,
2004-11-05, 03:38:00,VALID,916.367,VALID,0,VALID,100,VALID,0.0169808,VALID,19.1033,VALID,11,VALID,1.55541,
2004-11-05, 03:39:00,VALID,916.357,VALID,0,VALID,100,VALID,0,VALID,19.1033,VALID,17,VALID,1.51641,
2004-11-05, 03:40:00,VALID,916.334,VALID,0,VALID,100,VALID,0.0339617,VALID,19.1294,VALID,22,VALID,0.941501,
2004-11-05, 03:41:00,VALID,916.332,VALID,0,VALID,100,VALID,0.0509425,VALID,19.1421,VALID,15,VALID,1.63622,